Phnom Penh, Cambodia

2:12 PM +07 on September 25, 2017 (GMT +0700)
Pochentong International

Weather History for VDPP - September, 2013

Change the Weather History Date:

Tuesday, September 17, 2013

  Actual Average Record
Temperature  
Mean Temperature 83 °F -  
Max Temperature 86 °F 85 °F 93 °F (2016)
Min Temperature 80 °F 76 °F 73 °F (1997)
Cooling Degree Days 18    
Growing Degree Days 33 (Base 50)    
Moisture  
Dew Point 73 °F    
Average Humidity 71    
Maximum Humidity 84    
Minimum Humidity 58    
Precipitation  
Precipitation 0.00 in - - ()
Sea Level Pressure  
Sea Level Pressure 29.71 in    
Wind  
Wind Speed 7 mph ()    
Max Wind Speed 15 mph    
Max Gust Speed -    
Visibility 6.0 miles    
Events Rain    
Averages and records for this station are not official NWS values.
T = Trace of Precipitation, MM = Missing Value Source: Averaged Metar Reports

Daily Weather History Graph

Daily Weather History Graph

Search for Another Location

Airport or City:

Trip Planner

Search our weather history database for the weather conditions in past years. The results will help you decide how hot, cold, wet, or windy it might be!

Date:

Astronomy

Sep. 17, 2013 Rise Set
Actual Time 5:49 AM +07 6:00 PM +07
Civil Twilight 5:28 AM +07 6:21 PM +07
Nautical Twilight 5:04 AM +07 6:45 PM +07
Astronomical Twilight 4:39 AM +07 7:10 PM +07
Moon 4:12 PM +07 (9/17) 3:28 AM +07 (9/17)
Length of Visible Light 12h 52m
Length of Day
12h 10m
Waxing Gibbous, 93% of the Moon is Illuminated
Sep 17
Waxing Gibbous
Sep 19
Full
Sep 27
Last Quarter
Oct 5
New
Oct 12
First Quarter

Hourly Weather History & Observations

Time (+07) Temp. Heat Index Dew Point Humidity Pressure Visibility Wind Dir Wind Speed Gust Speed Precip Events Conditions
12:00 AM 82.4 °F 88.2 °F 73.4 °F 74% 29.77 in 5.6 mi WSW 3.5 mph - N/A   Scattered Clouds
12:30 AM 80.6 °F 85.4 °F 73.4 °F 79% 29.77 in 5.6 mi SW 5.8 mph - N/A   Scattered Clouds
1:00 AM 80.6 °F 85.4 °F 73.4 °F 79% 29.77 in 5.6 mi WSW 3.5 mph - N/A   Scattered Clouds
7:00 AM 80.6 °F 84.6 °F 71.6 °F 74% 29.74 in 6.2 mi WSW 9.2 mph - N/A   Mostly Cloudy
7:30 AM 80.6 °F 84.6 °F 71.6 °F 74% 29.74 in 6.2 mi WSW 10.4 mph - N/A   Mostly Cloudy
8:00 AM 82.4 °F 87.2 °F 71.6 °F 70% 29.74 in 6.2 mi SW 9.2 mph - N/A   Mostly Cloudy
8:30 AM 82.4 °F 87.2 °F 71.6 °F 70% 29.74 in 6.2 mi WSW 10.4 mph - N/A   Mostly Cloudy
9:00 AM 84.2 °F 88.4 °F 69.8 °F 62% 29.77 in 6.2 mi WSW 12.7 mph - N/A   Mostly Cloudy
9:30 AM 82.4 °F 87.2 °F 71.6 °F 70% 29.77 in 6.2 mi West 11.5 mph - N/A   Mostly Cloudy
10:00 AM 82.4 °F 87.2 °F 71.6 °F 70% 29.77 in 6.2 mi WSW 9.2 mph - N/A   Mostly Cloudy
10:30 AM 86.0 °F 91.8 °F 71.6 °F 62% 29.74 in 6.2 mi WSW 6.9 mph - N/A   Mostly Cloudy
11:00 AM 86.0 °F 91.8 °F 71.6 °F 62% 29.74 in 6.2 mi West 12.7 mph - N/A   Mostly Cloudy
11:30 AM 86.0 °F 91.8 °F 71.6 °F 62% 29.74 in 6.2 mi WSW 5.8 mph - N/A   Mostly Cloudy
12:00 PM 86.0 °F 93.4 °F 73.4 °F 66% 29.71 in 6.2 mi SW 13.8 mph - N/A   Mostly Cloudy
12:30 PM 86.0 °F 91.8 °F 71.6 °F 62% 29.71 in 6.2 mi WSW 13.8 mph - N/A   Mostly Cloudy
1:00 PM 86.0 °F 90.4 °F 69.8 °F 58% 29.71 in 6.2 mi West 12.7 mph - N/A   Mostly Cloudy
1:30 PM 86.0 °F 91.8 °F 71.6 °F 62% 29.68 in 6.2 mi West 15.0 mph - N/A   Mostly Cloudy
2:00 PM 86.0 °F 91.8 °F 71.6 °F 62% 29.68 in 6.2 mi SW 12.7 mph - N/A   Mostly Cloudy
2:30 PM 86.0 °F 91.8 °F 71.6 °F 62% 29.65 in 6.2 mi West 11.5 mph - N/A   Mostly Cloudy
3:00 PM 86.0 °F 91.8 °F 71.6 °F 62% 29.65 in 6.2 mi WSW 8.1 mph - N/A   Mostly Cloudy
3:30 PM 86.0 °F 91.8 °F 71.6 °F 62% 29.65 in 6.2 mi West 11.5 mph - N/A   Mostly Cloudy
4:00 PM 84.2 °F 89.6 °F 71.6 °F 66% 29.65 in 6.2 mi WNW 8.1 mph - N/A   Mostly Cloudy
4:30 PM 82.4 °F 88.2 °F 73.4 °F 74% 29.65 in 6.2 mi WNW 4.6 mph - N/A   Mostly Cloudy
5:00 PM 82.4 °F 88.2 °F 73.4 °F 74% 29.65 in 6.2 mi North 2.3 mph - N/A   Mostly Cloudy
5:30 PM 82.4 °F 89.5 °F 75.2 °F 79% 29.65 in 5.6 mi NNW 3.5 mph - N/A Rain Light Rain
6:00 PM 82.4 °F 89.5 °F 75.2 °F 79% 29.68 in 5.6 mi NNW 3.5 mph - N/A   Mostly Cloudy
6:30 PM 82.4 °F 89.5 °F 75.2 °F 79% 29.68 in - WNW 4.6 mph - N/A Rain Light Rain
7:00 PM 82.4 °F 89.5 °F 75.2 °F 79% 29.68 in - WSW 4.6 mph - N/A Rain Light Rain
7:30 PM 82.4 °F 89.5 °F 75.2 °F 79% 29.71 in - WSW 4.6 mph - N/A Rain Light Rain
8:00 PM 82.4 °F 89.5 °F 75.2 °F 79% 29.71 in - WSW 5.8 mph - N/A Rain Light Rain
8:30 PM 82.4 °F 90.9 °F 77.0 °F 84% 29.74 in - SW 5.8 mph - N/A Rain Light Rain
9:00 PM 80.6 °F 85.4 °F 73.4 °F 79% 29.74 in - WSW 6.9 mph - N/A Rain Light Rain
9:30 PM 80.6 °F 85.4 °F 73.4 °F 79% 29.74 in 5.6 mi WSW 6.9 mph - N/A   Mostly Cloudy
10:00 PM 80.6 °F 84.6 °F 71.6 °F 74% 29.74 in 5.6 mi WSW 9.2 mph - N/A   Mostly Cloudy
10:30 PM 80.6 °F 84.6 °F 71.6 °F 74% 29.74 in 5.6 mi West 4.6 mph - N/A   Mostly Cloudy
11:00 PM 80.6 °F 84.6 °F 71.6 °F 74% 29.74 in 5.6 mi West 8.1 mph - N/A   Scattered Clouds
11:30 PM 80.6 °F 84.6 °F 71.6 °F 74% 29.71 in 5.6 mi West 3.5 mph - N/A   Scattered Clouds